Hourly Data Report for June 21, 2015

All times are specified in Local Standard Time (LST). Add 1 hour to adjust for Daylight Saving Time where and when it is observed.

KELOWNA UBCO
BRITISH COLUMBIA

49°56'26.700" N
119°24'00.760" W
456.00 m
1123996
71644
VKU

Download Data

Hourly Data (June 2015)
Hourly Data Report for June 21, 2015
TIME Temp Definition
°C
Dew Point Definition
°C
Rel Hum Definition
%
Wind Dir Definition
10's deg

Wind Spd Definition
km/h
Visibility Definition
km
Stn Press Definition
kPa
Hmdx Definition


Wind Chill Definition


Weather Definition


00:00 12.2 6.9 70       96.32     LegendNANA
01:00 11.7 7.2 74       96.30     LegendNANA
02:00 10.6 6.5 76       96.29     LegendNANA
03:00 10.0 6.5 79       96.27     LegendNANA
04:00 8.5 6.2 86       96.33     LegendNANA
05:00 8.8 6.0 83       96.37     LegendNANA
06:00 11.7 5.5 66       96.39     LegendNANA
07:00 12.9 6.5 65       96.37     LegendNANA
08:00 14.8 6.1 56       96.33     LegendNANA
09:00 16.3 5.9 50       96.32     LegendNANA
10:00 17.6 6.0 46       96.28     LegendNANA
11:00 18.8 4.6 39       96.22     LegendNANA
12:00 19.9 4.2 36       96.19     LegendNANA
13:00 22.2 5.6 34       96.15     LegendNANA
14:00 22.2 4.8 32       96.12     LegendNANA
15:00 22.4 4.4 31       96.10     LegendNANA
16:00 23.8 3.5 27       96.06     LegendNANA
17:00 23.9 3.2 26       96.02     LegendNANA
18:00 23.7 3.7 27       96.00     LegendNANA
19:00 22.2 4.1 31       96.02     LegendNANA
20:00 20.4 4.3 35       96.04     LegendNANA
21:00 18.4 4.9 41       96.09     LegendNANA
22:00 15.6 5.0 49       96.14     LegendNANA
23:00 13.7 5.9 59       96.17     LegendNANA

Notes on Data Quality.

Legend

  • E = Estimated
  • M = Missing
  • NA = Not Available
Date modified: